Location: Antioch Baptist Church
(32.6696°N, 85.7327°W)
Time: 12:25:11
(UTC+00:00)

Cosmos 407 Rocket - Pass Details

Date: 14 July 2020
Orbit: 744 x 786 km, 74.0° (Epoch: 08 August)

Event Time Altitude Azimuth Distance (km) Brightness Sun altitude
Exits shadow 07:36:02 39° 323° (NW) 1,159 4.5 -30.0°
Drops below altitude 10° 07:40:03 10° 3° (N) 2,350 6.7 -29.6°
Sets 07:42:34 0° 10° (N) 3,281 7.8 -29.3°
